User: anonymous   Login
Location: Newark
(47.5500°N, 8.6167°E)
Time: 13:40:09
(UTC+00:00)
Language:

Envisat - Orbit

View from above orbital plane
View from above orbital plane
View from above satellite
View from above satellite

Ground track
Ground track

The orbit data is extracted from the following two-line orbital elements,

1 27386U 02009A   20055.99813243  .00000010  00000-0  16727-4 0  9996
2 27386  98.1398  68.9947 0001225  95.5990 294.6838 14.37972393942313
Epoch (UTC): 24 February 2020 23:57:18
Eccentricity: 0.0001225
inclination: 98.1398°
perigee height: 764 km
apogee height: 766 km
right ascension of ascending node: 68.9947°
argument of perigee: 95.5990°
revolutions per day: 14.37972393
mean anomaly at epoch: 294.6838°
orbit number at epoch: 94231

The dashed part of the orbit path shows where the satellite is in the earth's shadow,  

DLR